Lid_Strength_Index
-0 -0 -0 -0 -0 0 0 -0 -0 -0 -0 -0 -1 -1 -1 -1 -1 2 5 3 2 -1 -1 3 3 4 3 4 4 4 8 10 10 10 9 6 7 5 4 6 5 4 5 4 3
0 -0 0 0 0 0 0 -0 0 -0 -0 -0 -0 -1 -1 -1 2 5 2 1 0 -1 2 4 5 4 6 6 5 6 9 9 7 7 8 7 6 6 6 6 6 5 3 3 2
0 0 1 1 1 1 1 1 0 0 -0 -0 -0 -0 -1 -0 5 6 -0 1 0 -0 2 3 4 5 7 6 7 7 9 8 7 6 6 7 6 5 6 7 5 5 4 2 2
2 2 1 1 1 1 1 1 1 1 0 0 0 0 -0 2 10 5 0 1 1 2 4 4 5 7 8 9 7 9 7 7 7 6 6 7 5 6 5 5 3 3 3 2 3
1 1 2 2 2 1 1 1 1 1 1 1 0 0 2 6 7 3 0 3 3 4 5 6 7 7 10 9 8 9 8 7 6 6 6 5 6 6 6 4 3 3 3 3 3
1 2 2 2 1 1 1 1 1 1 1 1 1 1 4 9 4 3 4 4 4 4 5 5 6 6 7 8 8 7 8 7 7 7 6 6 6 5 5 3 4 4 4 3 3
1 2 2 2 2 2 1 1 1 1 1 1 1 3 6 7 3 3 4 4 4 4 5 5 5 6 7 9 7 8 9 7 7 6 6 5 8 8 5 4 4 4 4 4 3
1 2 2 2 2 2 1 2 2 1 1 1 1 3 7 4 3 5 4 4 4 4 4 4 4 5 7 7 8 9 9 11 7 6 6 6 11 7 5 5 6 5 5 5 4
2 2 3 2 2 2 1 2 2 1 1 1 3 5 8 4 6 5 4 6 5 4 4 4 4 7 8 10 11 10 12 11 9 6 6 7 10 7 5 6 7 6 6 5 4
3 3 3 2 2 2 2 3 2 2 3 3 5 7 7 8 6 5 4 4 6 6 6 7 7 9 10 11 15 14 12 11 10 8 7 8 9 7 7 7 7 7 6 6 5
3 3 3 3 2 2 2 3 6 6 6 8 8 8 7 5 5 5 4 5 6 7 10 8 10 13 12 11 11 11 11 11 9 7 8 9 9 10 9 8 10 8 8 7 6
4 4 4 3 2 3 3 6 7 7 9 7 7 7 6 6 8 6 4 7 8 11 9 10 13 11 10 11 11 11 11 11 8 7 8 9 10 10 10 11 11 12 11 10 8
4 4 4 4 3 4 6 7 4 5 8 8 7 7 7 6 8 7 5 7 9 10 11 12 12 11 11 12 12 11 12 11 11 8 7 9 10 11 10 11 11 11 11 11 10
4 4 4 4 5 5 6 5 4 5 10 11 10 8 7 7 9 6 5 7 8 11 11 12 11 12 12 13 12 13 11 10 10 10 12 8 14 12 12 12 13 12 12 11 10
5 5 5 5 6 7 6 4 4 6 17 11 10 6 8 9 8 8 6 7 10 11 10 12 12 12 13 13 11 12 11 11 9 10 10 10 12 13 12 13 13 12 12 11 10
5 5 5 6 5 6 5 5 5 10 19 12 10 11 10 9 9 8 8 7 8 11 10 12 11 11 12 11 11 10 11 10 10 10 15 12 12 14 13 13 12 11 11 11 11
5 5 6 6 8 6 5 7 10 13 12 13 12 11 11 11 11 11 11 11 12 13 12 11 12 11 11 12 10 11 12 15 16 15 15 12 12 14 12 11 11 11 11 11 10
6 7 6 7 6 6 7 10 14 14 13 11 12 12 13 12 12 12 12 12 10 11 12 14 15 12 11 12 13 13 13 15 19 17 16 13 14 14 11 10 10 10 10 11 11
7 6 7 6 6 7 10 12 13 14 12 12 12 14 13 12 13 12 13 12 11 11 14 15 14 12 12 11 11 13 14 13 15 14 16 14 13 12 11 11 11 12 12 11 11
8 8 8 7 6 8 10 13 14 13 12 12 14 13 15 13 14 13 13 12 12 11 10 13 16 12 12 12 11 12 12 15 14 18 19 16 15 13 14 13 12 13 13 12 12
8 9 8 7 8 9 12 12 14 13 12 13 13 14 13 14 14 14 14 12 11 11 11 12 13 13 12 13 14 12 13 13 14 15 17 18 15 13 14 13 13 13 13 13 13
10 11 8 8 11 11 12 13 13 13 12 13 13 13 13 13 14 14 14 13 11 11 13 12 13 15 14 12 12 12 13 13 15 16 15 16 15 12 12 12 12 12 12 12 13
13 12 9 9 12 12 13 14 13 13 13 13 14 13 12 13 15 14 13 11 11 12 13 12 14 16 15 14 13 13 12 13 13 14 16 17 15 12 12 12 12 13 12 12 13
13 12 12 11 14 14 13 14 15 13 13 13 13 13 14 14 12 14 14 12 11 12 11 11 13 15 16 14 13 15 14 13 14 16 15 15 14 14 13 13 14 14 14 14 14
13 12 12 11 12 14 15 15 15 15 13 13 14 13 14 16 15 15 13 13 13 12 12 12 15 14 14 13 13 14 14 14 14 14 16 14 15 13 13 14 15 14 15 15 15
14 15 14 15 14 15 15 14 14 13 14 14 15 13 13 15 14 15 15 14 14 13 13 13 15 15 16 13 14 15 14 13 13 13 13 14 14 13 14 15 15 16 16 16 16
11 12 12 13 15 15 15 14 13 13 12 12 13 13 14 13 12 12 12 12 13 14 14 14 15 15 17 15 15 17 14 13 14 14 14 16 15 15 15 16 16 16 16 17 17